TimeEDT,TemperatureF,Dew PointF,Humidity,Sea Level PressureIn,VisibilityMPH,Wind Direction,Wind SpeedMPH,Gust SpeedMPH,PrecipitationIn,Events,Conditions,WindDirDegrees,DateUTC
12:16 AM,39.4,37.4,93,29.74,10.0,ENE,4.6,-,N/A,Rain,Light Rain,60,2013-10-20 04:16:00
12:37 AM,39.6,37.8,93,29.74,10.0,Calm,Calm,-,N/A,Rain,Light Rain,0,2013-10-20 04:37:00
12:56 AM,39.2,37.8,95,29.75,2.5,Calm,Calm,-,N/A,,Unknown,0,2013-10-20 04:56:00
1:16 AM,39.2,37.9,95,29.74,5.0,ESE,5.8,-,N/A,Rain,Light Rain,110,2013-10-20 05:16:00
1:37 AM,39.2,37.8,95,29.74,4.0,NE,3.5,-,N/A,,Overcast,40,2013-10-20 05:37:00
1:56 AM,38.8,37.6,95,29.74,10.0,ESE,3.5,-,N/A,,Overcast,120,2013-10-20 05:56:00
2:16 AM,38.5,37.4,96,29.74,10.0,East,4.6,-,N/A,,Overcast,100,2013-10-20 06:16:00
2:36 AM,38.3,36.9,95,29.74,10.0,ESE,3.5,-,N/A,,Overcast,110,2013-10-20 06:36:00
2:56 AM,38.3,36.9,95,29.73,10.0,Calm,Calm,-,N/A,,Overcast,0,2013-10-20 06:56:00
3:16 AM,37.9,36.7,95,29.74,10.0,Calm,Calm,-,N/A,,Overcast,0,2013-10-20 07:16:00
3:36 AM,37.8,36.7,96,29.73,10.0,Calm,Calm,-,N/A,,Mostly Cloudy,0,2013-10-20 07:36:00
3:56 AM,35.8,34.7,96,29.73,5.0,Calm,Calm,-,N/A,,Scattered Clouds,0,2013-10-20 07:56:00
4:16 AM,34.7,33.8,97,29.73,3.0,Calm,Calm,-,N/A,,Clear,0,2013-10-20 08:16:00
4:37 AM,33.6,32.9,97,29.73,3.0,Calm,Calm,-,N/A,,Clear,0,2013-10-20 08:37:00
4:56 AM,33.8,32.9,96,29.74,1.0,Calm,Calm,-,N/A,,Mostly Cloudy,0,2013-10-20 08:56:00
5:16 AM,33.4,32.9,98,29.74,2.5,Calm,Calm,-,N/A,,Mostly Cloudy,0,2013-10-20 09:16:00
5:37 AM,33.4,32.9,98,29.74,1.5,Calm,Calm,-,N/A,,Mostly Cloudy,0,2013-10-20 09:37:00
5:56 AM,32.9,32.2,97,29.74,1.0,Calm,Calm,-,N/A,,Overcast,0,2013-10-20 09:56:00
6:17 AM,32.9,32.2,97,29.75,3.0,Calm,Calm,-,N/A,,Scattered Clouds,0,2013-10-20 10:17:00
6:36 AM,33.1,32.5,98,29.75,3.0,Calm,Calm,-,N/A,,Mostly Cloudy,0,2013-10-20 10:36:00
6:56 AM,32.9,32.4,98,29.75,1.2,Calm,Calm,-,N/A,,Overcast,0,2013-10-20 10:56:00
7:17 AM,32.9,32.5,99,29.75,2.5,Calm,Calm,-,N/A,,Scattered Clouds,0,2013-10-20 11:17:00
7:36 AM,32.2,32.0,99,29.75,1.0,Calm,Calm,-,N/A,,Overcast,0,2013-10-20 11:36:00
7:56 AM,32.2,32.0,99,29.76,3.0,Calm,Calm,-,N/A,,Mostly Cloudy,0,2013-10-20 11:56:00
8:17 AM,37.4,36.9,98,29.77,10.0,SSW,4.6,-,N/A,,Overcast,200,2013-10-20 12:17:00
8:36 AM,38.1,37.4,97,29.77,10.0,SSW,3.5,-,N/A,,Mostly Cloudy,210,2013-10-20 12:36:00
8:56 AM,38.8,38.3,98,29.78,10.0,Calm,Calm,-,N/A,,Scattered Clouds,0,2013-10-20 12:56:00
9:17 AM,40.5,39.9,98,29.79,10.0,SSW,5.8,-,N/A,,Overcast,200,2013-10-20 13:17:00
9:36 AM,41.2,40.3,97,29.80,10.0,South,8.1,-,N/A,,Mostly Cloudy,190,2013-10-20 13:36:00
9:56 AM,41.7,40.1,94,29.80,10.0,South,6.9,-,N/A,,Scattered Clouds,190,2013-10-20 13:56:00
10:17 AM,43.2,40.1,89,29.81,10.0,South,6.9,-,N/A,,Scattered Clouds,190,2013-10-20 14:17:00
10:36 AM,44.4,40.3,85,29.81,10.0,South,6.9,-,N/A,,Scattered Clouds,170,2013-10-20 14:36:00
10:57 AM,45.5,40.3,82,29.81,10.0,SSW,6.9,-,N/A,,Scattered Clouds,210,2013-10-20 14:57:00
11:17 AM,45.7,39.7,80,29.81,10.0,South,6.9,-,N/A,,Mostly Cloudy,190,2013-10-20 15:17:00
11:36 AM,47.3,40.5,77,29.82,10.0,SW,6.9,-,N/A,,Mostly Cloudy,220,2013-10-20 15:36:00
11:57 AM,48.2,39.9,73,29.82,10.0,SSW,5.8,-,N/A,,Overcast,200,2013-10-20 15:57:00
12:17 PM,50.0,39.4,67,29.81,10.0,South,11.5,17.3,N/A,,Overcast,180,2013-10-20 16:17:00
12:36 PM,49.8,37.4,62,29.82,10.0,SSW,10.4,16.1,N/A,,Scattered Clouds,200,2013-10-20 16:36:00
12:57 PM,50.2,37.0,61,29.82,10.0,South,11.5,-,N/A,,Scattered Clouds,190,2013-10-20 16:57:00
1:17 PM,50.5,35.8,57,29.82,10.0,SSW,9.2,-,N/A,,Scattered Clouds,210,2013-10-20 17:17:00
1:36 PM,50.4,35.4,57,29.81,10.0,SSW,6.9,-,N/A,,Scattered Clouds,200,2013-10-20 17:36:00
1:57 PM,50.4,34.5,55,29.81,10.0,SSW,9.2,-,N/A,,Scattered Clouds,210,2013-10-20 17:57:00
2:17 PM,50.7,35.4,56,29.81,10.0,South,8.1,-,N/A,,Clear,190,2013-10-20 18:17:00
2:36 PM,50.7,35.1,55,29.80,10.0,SW,6.9,-,N/A,,Scattered Clouds,220,2013-10-20 18:36:00
2:57 PM,50.7,35.2,55,29.80,10.0,SSW,4.6,-,N/A,,Scattered Clouds,200,2013-10-20 18:57:00
3:17 PM,51.1,34.0,52,29.79,10.0,SW,5.8,-,N/A,,Mostly Cloudy,230,2013-10-20 19:17:00
3:36 PM,51.8,34.9,53,29.80,10.0,WSW,4.6,-,N/A,,Scattered Clouds,240,2013-10-20 19:36:00
3:57 PM,51.6,33.3,50,29.80,10.0,SW,8.1,-,N/A,,Mostly Cloudy,230,2013-10-20 19:57:00
4:16 PM,51.4,34.3,52,29.79,10.0,SW,5.8,-,N/A,,Overcast,220,2013-10-20 20:16:00
4:37 PM,51.8,33.6,50,29.79,10.0,SSW,3.5,-,N/A,,Mostly Cloudy,210,2013-10-20 20:37:00
4:57 PM,51.8,33.4,50,29.79,10.0,SSW,4.6,-,N/A,,Overcast,210,2013-10-20 20:57:00
5:16 PM,51.1,33.6,51,29.79,10.0,SSW,3.5,-,N/A,,Overcast,210,2013-10-20 21:16:00
5:37 PM,50.9,33.8,52,29.78,10.0,SSW,3.5,-,N/A,,Mostly Cloudy,200,2013-10-20 21:37:00
5:57 PM,50.4,35.6,57,29.78,10.0,Calm,Calm,-,N/A,,Mostly Cloudy,0,2013-10-20 21:57:00
6:16 PM,48.9,38.8,68,29.77,10.0,Calm,Calm,-,N/A,,Overcast,0,2013-10-20 22:16:00
6:37 PM,47.7,40.5,76,29.77,10.0,Calm,Calm,-,N/A,,Overcast,0,2013-10-20 22:37:00
6:57 PM,46.0,41.0,83,29.76,10.0,Calm,Calm,-,N/A,,Overcast,0,2013-10-20 22:57:00
7:16 PM,46.4,41.2,82,29.77,10.0,Calm,Calm,-,N/A,,Overcast,0,2013-10-20 23:16:00
7:37 PM,48.7,37.2,64,29.78,10.0,South,9.2,-,N/A,Rain,Light Rain,170,2013-10-20 23:37:00
7:57 PM,46.6,39.9,78,29.78,5.0,South,6.9,16.1,N/A,Rain,Light Rain,170,2013-10-20 23:57:00
8:16 PM,45.5,41.2,85,29.77,7.0,SE,5.8,-,N/A,Rain,Light Rain,140,2013-10-21 00:16:00
8:37 PM,45.1,41.5,87,29.77,7.0,SE,3.5,-,N/A,Rain,Light Rain,140,2013-10-21 00:37:00
8:56 PM,44.8,41.9,90,29.76,10.0,SSE,3.5,-,N/A,Rain,Light Rain,160,2013-10-21 00:56:00
9:17 PM,44.8,42.1,90,29.76,5.0,Calm,Calm,-,N/A,,Overcast,0,2013-10-21 01:17:00
9:37 PM,44.2,42.4,93,29.75,4.0,Calm,Calm,-,N/A,,Overcast,0,2013-10-21 01:37:00
9:56 PM,43.9,42.6,95,29.73,2.5,NNE,3.5,-,N/A,,Overcast,30,2013-10-21 01:56:00
10:17 PM,43.9,42.8,96,29.72,5.0,Calm,Calm,-,N/A,Rain,Light Rain,0,2013-10-21 02:17:00
10:37 PM,44.2,43.0,95,29.71,5.0,Calm,Calm,-,N/A,Rain,Light Rain,0,2013-10-21 02:37:00
10:56 PM,44.6,43.0,94,29.70,4.0,Calm,Calm,-,N/A,,Overcast,0,2013-10-21 02:56:00
11:17 PM,44.6,43.2,95,29.69,5.0,Calm,Calm,-,N/A,Rain,Light Rain,0,2013-10-21 03:17:00
11:37 PM,45.7,44.2,95,29.69,4.0,South,4.6,-,N/A,,Overcast,170,2013-10-21 03:37:00
11:56 PM,46.2,44.6,94,29.67,4.0,South,9.2,-,N/A,,Overcast,170,2013-10-21 03:56:00